map of INI home
INI - Airport
Location
City:  Nis, Serbia
Name:Constantine the Great International Airport
Old (Alt.):Medosevac
ICAO:LYNI
IATA:INI

Details
Type:Airport (Aerodrome, Airfield)
Use:International (customs port of entry)
Latitude:4320'14"N (43.337289)
Longitude:2151'13"E (21.853722)
Datum:WGS 1984
Elevation:648 ft (198 m)
Variation:4.86E (WMM2015 magnetic declination)
0.11 annual change
Runways:1
Longest:8202 × 148 ft (2500 × 45 m), paved

Time
Time Zone:UTC+1 (DST+2)
Local Time:

Weather
METAR:LYNI 181730Z 07004KT 030V100 CAVOK 18/09 Q1016 NOSIG
TAF:LYNI 181700Z 1818/1918 07006KT 9999 SCT040 TX21/1913Z TN09/1905Z
BECMG 1908/1910 32010KT PROB30
TEMPO 1910/1914 32020KT 5000 SHRA SCT027TCU SCT033

Related Locations
Nearby:
Farthest:CHT: 11523 mi / 18544 km
Waitangi [Tuuta], CIT, NZ

Find:

   beyond  
but within

Other Information
Maps:
NOTAMs:
Links:
Sources:

  
  • flag of Serbia
  

Sectional Chart

Flight Planning
at skyvector.com

Satellite Image

Google Maps Satellite view

 

Copyright © 2004-2018 Karl L. Swartz. All rights reserved.
The Great Circle Mapper name and logo are trademarks of the Great Circle Mapper.
All other trademarks mentioned herein belong to their respective owners.
Please see credits for attibutions and further copyright information.

  Follow gcmap on Facebook Follow gcmap on Twitter Follow gcmap on Google+ GCmap on LinkedIn

hCard Microformat

Geo Microformat